<?xml version="1.0" encoding="utf-8"?>
<gpx xmlns:xsi="http://www.w3.org/2001/XMLSchema-instance" xmlns:xsd="http://www.w3.org/2001/XMLSchema" xsi:schemaLocation="http://www.topografix.com/GPX/1/0 http://www.topografix.com/GPX/1/0/gpx.xsd" version="1.0" creator="QuoVadis 6.0.4.2" xmlns="http://www.topografix.com/GPX/1/0">
  <name>qv6</name>
  <trk>
    <name>03-501-00_Grutholz</name>
    <cmt>Trail: 03-501-00-Castrop from C:\Users\horst\Desktop\03-501-00-Castrop.usr
Import Date: 06.10.2008 15:33:06</cmt>
    <trkseg>
      <trkpt lat="51.5707120415422" lon="7.31786760210178">
        <ele>0</ele>
        <time>1899-12-30T00:00:00Z</time>
      </trkpt>
      <trkpt lat="51.5717372411848" lon="7.31705639850993">
        <ele>0</ele>
        <time>1899-12-30T00:00:00Z</time>
      </trkpt>
      <trkpt lat="51.5721742044969" lon="7.31680402405913">
        <ele>0</ele>
        <time>1899-12-30T00:00:00Z</time>
      </trkpt>
      <trkpt lat="51.5723366641443" lon="7.31653362286184">
        <ele>0</ele>
        <time>1899-12-30T00:00:00Z</time>
      </trkpt>
      <trkpt lat="51.5725719495009" lon="7.31576748613621">
        <ele>0</ele>
        <time>1899-12-30T00:00:00Z</time>
      </trkpt>
      <trkpt lat="51.5726895917225" lon="7.31545201807271">
        <ele>0</ele>
        <time>1899-12-30T00:00:00Z</time>
      </trkpt>
      <trkpt lat="51.5728968653722" lon="7.31511852326272">
        <ele>0</ele>
        <time>1899-12-30T00:00:00Z</time>
      </trkpt>
      <trkpt lat="51.5740116452764" lon="7.31493825579787">
        <ele>0</ele>
        <time>1899-12-30T00:00:00Z</time>
      </trkpt>
      <trkpt lat="51.575008761926" lon="7.3145867342414">
        <ele>0</ele>
        <time>1899-12-30T00:00:00Z</time>
      </trkpt>
      <trkpt lat="51.5753728721044" lon="7.31442449352303">
        <ele>0</ele>
        <time>1899-12-30T00:00:00Z</time>
      </trkpt>
      <trkpt lat="51.5754849054185" lon="7.31474897495977">
        <ele>0</ele>
        <time>1899-12-30T00:00:00Z</time>
      </trkpt>
      <trkpt lat="51.5758770198436" lon="7.31554215180514">
        <ele>0</ele>
        <time>1899-12-30T00:00:00Z</time>
      </trkpt>
      <trkpt lat="51.5760786773735" lon="7.31603788733349">
        <ele>0</ele>
        <time>1899-12-30T00:00:00Z</time>
      </trkpt>
      <trkpt lat="51.5756641581469" lon="7.31664178334076">
        <ele>0</ele>
        <time>1899-12-30T00:00:00Z</time>
      </trkpt>
      <trkpt lat="51.5747454804416" lon="7.31824616377798">
        <ele>0</ele>
        <time>1899-12-30T00:00:00Z</time>
      </trkpt>
      <trkpt lat="51.5740844691429" lon="7.31933678194036">
        <ele>0</ele>
        <time>1899-12-30T00:00:00Z</time>
      </trkpt>
      <trkpt lat="51.5735690977325" lon="7.32022009251815">
        <ele>0</ele>
        <time>1899-12-30T00:00:00Z</time>
      </trkpt>
      <trkpt lat="51.5733954386585" lon="7.32063470768732">
        <ele>0</ele>
        <time>1899-12-30T00:00:00Z</time>
      </trkpt>
      <trkpt lat="51.5732609924681" lon="7.32132873742702">
        <ele>0</ele>
        <time>1899-12-30T00:00:00Z</time>
      </trkpt>
      <trkpt lat="51.572751213717" lon="7.32349194700529">
        <ele>0</ele>
        <time>1899-12-30T00:00:00Z</time>
      </trkpt>
      <trkpt lat="51.5722246230703" lon="7.3259165444076">
        <ele>0</ele>
        <time>1899-12-30T00:00:00Z</time>
      </trkpt>
      <trkpt lat="51.5714851450557" lon="7.32918839889474">
        <ele>0</ele>
        <time>1899-12-30T00:00:00Z</time>
      </trkpt>
      <trkpt lat="51.571216240977" lon="7.33029704380361">
        <ele>0</ele>
        <time>1899-12-30T00:00:00Z</time>
      </trkpt>
      <trkpt lat="51.5705999964639" lon="7.33303710926942">
        <ele>0</ele>
        <time>1899-12-30T00:00:00Z</time>
      </trkpt>
      <trkpt lat="51.5702358480522" lon="7.33249630687485">
        <ele>0</ele>
        <time>1899-12-30T00:00:00Z</time>
      </trkpt>
      <trkpt lat="51.5700901878708" lon="7.33231603941">
        <ele>0</ele>
        <time>1899-12-30T00:00:00Z</time>
      </trkpt>
      <trkpt lat="51.5699445272227" lon="7.33235209290297">
        <ele>0</ele>
        <time>1899-12-30T00:00:00Z</time>
      </trkpt>
      <trkpt lat="51.5697820590261" lon="7.33221689230433">
        <ele>0</ele>
        <time>1899-12-30T00:00:00Z</time>
      </trkpt>
      <trkpt lat="51.5696419997699" lon="7.3320636649592">
        <ele>0</ele>
        <time>1899-12-30T00:00:00Z</time>
      </trkpt>
      <trkpt lat="51.5692722412604" lon="7.33142371545896">
        <ele>0</ele>
        <time>1899-12-30T00:00:00Z</time>
      </trkpt>
      <trkpt lat="51.5690201314614" lon="7.33115331426168">
        <ele>0</ele>
        <time>1899-12-30T00:00:00Z</time>
      </trkpt>
      <trkpt lat="51.5685439202489" lon="7.33054040488116">
        <ele>0</ele>
        <time>1899-12-30T00:00:00Z</time>
      </trkpt>
      <trkpt lat="51.5685047026326" lon="7.32992749550065">
        <ele>0</ele>
        <time>1899-12-30T00:00:00Z</time>
      </trkpt>
      <trkpt lat="51.5684430748815" lon="7.3295579471977">
        <ele>0</ele>
        <time>1899-12-30T00:00:00Z</time>
      </trkpt>
      <trkpt lat="51.5683198191287" lon="7.32919741226799">
        <ele>0</ele>
        <time>1899-12-30T00:00:00Z</time>
      </trkpt>
      <trkpt lat="51.5676250986362" lon="7.32902615817637">
        <ele>0</ele>
        <time>1899-12-30T00:00:00Z</time>
      </trkpt>
      <trkpt lat="51.5671712835501" lon="7.32874674360585">
        <ele>0</ele>
        <time>1899-12-30T00:00:00Z</time>
      </trkpt>
      <trkpt lat="51.5669527783745" lon="7.3284853557818">
        <ele>0</ele>
        <time>1899-12-30T00:00:00Z</time>
      </trkpt>
      <trkpt lat="51.5667342721488" lon="7.32828706157046">
        <ele>0</ele>
        <time>1899-12-30T00:00:00Z</time>
      </trkpt>
      <trkpt lat="51.5665773952366" lon="7.32823298133101">
        <ele>0</ele>
        <time>1899-12-30T00:00:00Z</time>
      </trkpt>
      <trkpt lat="51.5664709427379" lon="7.32828706157046">
        <ele>0</ele>
        <time>1899-12-30T00:00:00Z</time>
      </trkpt>
      <trkpt lat="51.5662043468874" lon="7.32851664462286">
        <ele>0</ele>
        <time>1899-12-30T00:00:00Z</time>
      </trkpt>
      <trkpt lat="51.5661459809371" lon="7.32869266336639">
        <ele>0</ele>
        <time>1899-12-30T00:00:00Z</time>
      </trkpt>
      <trkpt lat="51.5661010826486" lon="7.32876392029834">
        <ele>0</ele>
        <time>1899-12-30T00:00:00Z</time>
      </trkpt>
      <trkpt lat="51.5660625310303" lon="7.32881944250374">
        <ele>77</ele>
        <time>1899-12-30T00:00:00Z</time>
      </trkpt>
      <trkpt lat="51.5658563238623" lon="7.3285474451664">
        <ele>76</ele>
        <time>1899-12-30T00:00:00Z</time>
      </trkpt>
      <trkpt lat="51.5654792416951" lon="7.32834114180992">
        <ele>0</ele>
        <time>1899-12-30T00:00:00Z</time>
      </trkpt>
      <trkpt lat="51.565159875738" lon="7.32803468711966">
        <ele>0</ele>
        <time>1899-12-30T00:00:00Z</time>
      </trkpt>
      <trkpt lat="51.5645771671586" lon="7.32747585797861">
        <ele>0</ele>
        <time>1899-12-30T00:00:00Z</time>
      </trkpt>
      <trkpt lat="51.5643362373908" lon="7.32678182823892">
        <ele>0</ele>
        <time>1899-12-30T00:00:00Z</time>
      </trkpt>
      <trkpt lat="51.5641737491522" lon="7.32647537354866">
        <ele>0</ele>
        <time>1899-12-30T00:00:00Z</time>
      </trkpt>
      <trkpt lat="51.5640168634054" lon="7.3259796380203">
        <ele>0</ele>
        <time>1899-12-30T00:00:00Z</time>
      </trkpt>
      <trkpt lat="51.5637367089396" lon="7.3244203244493">
        <ele>0</ele>
        <time>1899-12-30T00:00:00Z</time>
      </trkpt>
      <trkpt lat="51.5639440234103" lon="7.32403274939986">
        <ele>0</ele>
        <time>1899-12-30T00:00:00Z</time>
      </trkpt>
      <trkpt lat="51.5641569399909" lon="7.32386149530825">
        <ele>0</ele>
        <time>1899-12-30T00:00:00Z</time>
      </trkpt>
      <trkpt lat="51.5644763129926" lon="7.32356405399123">
        <ele>0</ele>
        <time>1899-12-30T00:00:00Z</time>
      </trkpt>
      <trkpt lat="51.5644482979067" lon="7.32284298413181">
        <ele>0</ele>
        <time>1899-12-30T00:00:00Z</time>
      </trkpt>
      <trkpt lat="51.5643922676833" lon="7.32226612824427">
        <ele>0</ele>
        <time>1899-12-30T00:00:00Z</time>
      </trkpt>
      <trkpt lat="51.5643922676833" lon="7.32221204800481">
        <ele>66</ele>
        <time>1899-12-30T00:00:00Z</time>
      </trkpt>
      <trkpt lat="51.5649964313109" lon="7.32224843962797">
        <ele>0</ele>
        <time>1899-12-30T00:00:00Z</time>
      </trkpt>
      <trkpt lat="51.5651032907872" lon="7.3222535236362">
        <ele>65</ele>
        <time>1899-12-30T00:00:00Z</time>
      </trkpt>
      <trkpt lat="51.565272070539" lon="7.32226534607745">
        <ele>65</ele>
        <time>1899-12-30T00:00:00Z</time>
      </trkpt>
      <trkpt lat="51.5654408502858" lon="7.32227716859178">
        <ele>64</ele>
        <time>1899-12-30T00:00:00Z</time>
      </trkpt>
      <trkpt lat="51.565501653257" lon="7.32228415499076">
        <ele>0</ele>
        <time>1899-12-30T00:00:00Z</time>
      </trkpt>
      <trkpt lat="51.5655688878764" lon="7.32280693063884">
        <ele>0</ele>
        <time>1899-12-30T00:00:00Z</time>
      </trkpt>
      <trkpt lat="51.565826619663" lon="7.32361813423069">
        <ele>0</ele>
        <time>1899-12-30T00:00:00Z</time>
      </trkpt>
      <trkpt lat="51.5657403208616" lon="7.32396153103472">
        <ele>66</ele>
        <time>1899-12-30T00:00:00Z</time>
      </trkpt>
      <trkpt lat="51.5657287469875" lon="7.32433169521994">
        <ele>0</ele>
        <time>1899-12-30T00:00:00Z</time>
      </trkpt>
      <trkpt lat="51.5658154139635" lon="7.32459157854091">
        <ele>0</ele>
        <time>1899-12-30T00:00:00Z</time>
      </trkpt>
      <trkpt lat="51.565974459229" lon="7.32500803327591">
        <ele>67</ele>
        <time>1899-12-30T00:00:00Z</time>
      </trkpt>
      <trkpt lat="51.5660494155551" lon="7.32514054944324">
        <ele>67</ele>
        <time>1899-12-30T00:00:00Z</time>
      </trkpt>
      <trkpt lat="51.5661358638561" lon="7.32529067991272">
        <ele>66</ele>
        <time>1899-12-30T00:00:00Z</time>
      </trkpt>
      <trkpt lat="51.5661683921703" lon="7.3253667286398">
        <ele>67</ele>
        <time>1899-12-30T00:00:00Z</time>
      </trkpt>
      <trkpt lat="51.5662507849284" lon="7.32546681905695">
        <ele>67</ele>
        <time>1899-12-30T00:00:00Z</time>
      </trkpt>
      <trkpt lat="51.5664709427379" lon="7.32571825019626">
        <ele>0</ele>
        <time>1899-12-30T00:00:00Z</time>
      </trkpt>
      <trkpt lat="51.5668575322001" lon="7.32596161127382">
        <ele>0</ele>
        <time>1899-12-30T00:00:00Z</time>
      </trkpt>
      <trkpt lat="51.5669385943218" lon="7.32600969515176">
        <ele>68</ele>
        <time>1899-12-30T00:00:00Z</time>
      </trkpt>
      <trkpt lat="51.5669695865022" lon="7.32609681187246">
        <ele>0</ele>
        <time>1899-12-30T00:00:00Z</time>
      </trkpt>
      <trkpt lat="51.5671712835501" lon="7.32643932005569">
        <ele>0</ele>
        <time>1899-12-30T00:00:00Z</time>
      </trkpt>
      <trkpt lat="51.5674962380229" lon="7.32561910309059">
        <ele>0</ele>
        <time>1899-12-30T00:00:00Z</time>
      </trkpt>
      <trkpt lat="51.5676419065154" lon="7.32524955478764">
        <ele>0</ele>
        <time>1899-12-30T00:00:00Z</time>
      </trkpt>
      <trkpt lat="51.5677035353525" lon="7.32477184600577">
        <ele>0</ele>
        <time>1899-12-30T00:00:00Z</time>
      </trkpt>
      <trkpt lat="51.5677203432026" lon="7.32456453842118">
        <ele>0</ele>
        <time>1899-12-30T00:00:00Z</time>
      </trkpt>
      <trkpt lat="51.5679108317369" lon="7.32396064241392">
        <ele>0</ele>
        <time>1899-12-30T00:00:00Z</time>
      </trkpt>
      <trkpt lat="51.568022883443" lon="7.32344688013908">
        <ele>0</ele>
        <time>1899-12-30T00:00:00Z</time>
      </trkpt>
      <trkpt lat="51.5681405374373" lon="7.32319450568828">
        <ele>0</ele>
        <time>1899-12-30T00:00:00Z</time>
      </trkpt>
      <trkpt lat="51.5683590369045" lon="7.32208586077941">
        <ele>0</ele>
        <time>1899-12-30T00:00:00Z</time>
      </trkpt>
      <trkpt lat="51.5685831378313" lon="7.32112142984243">
        <ele>0</ele>
        <time>1899-12-30T00:00:00Z</time>
      </trkpt>
      <trkpt lat="51.5687175978572" lon="7.32056260070138">
        <ele>0</ele>
        <time>1899-12-30T00:00:00Z</time>
      </trkpt>
      <trkpt lat="51.5687904302052" lon="7.32012094541248">
        <ele>0</ele>
        <time>1899-12-30T00:00:00Z</time>
      </trkpt>
      <trkpt lat="51.5689080822131" lon="7.31989561108141">
        <ele>0</ele>
        <time>1899-12-30T00:00:00Z</time>
      </trkpt>
      <trkpt lat="51.5690145290056" lon="7.31925566158117">
        <ele>0</ele>
        <time>1899-12-30T00:00:00Z</time>
      </trkpt>
      <trkpt lat="51.5690033240918" lon="7.31906638074307">
        <ele>0</ele>
        <time>1899-12-30T00:00:00Z</time>
      </trkpt>
      <trkpt lat="51.5689416970166" lon="7.31851656497526">
        <ele>0</ele>
        <time>1899-12-30T00:00:00Z</time>
      </trkpt>
      <trkpt lat="51.5691882048161" lon="7.31818307016528">
        <ele>0</ele>
        <time>1899-12-30T00:00:00Z</time>
      </trkpt>
      <trkpt lat="51.569468325693" lon="7.31816504341879">
        <ele>0</ele>
        <time>1899-12-30T00:00:00Z</time>
      </trkpt>
      <trkpt lat="51.5696700116557" lon="7.31811096317934">
        <ele>0</ele>
        <time>1899-12-30T00:00:00Z</time>
      </trkpt>
      <trkpt lat="51.5699109131607" lon="7.31810194980609">
        <ele>0</ele>
        <time>1899-12-30T00:00:00Z</time>
      </trkpt>
      <trkpt lat="51.5702022342056" lon="7.31811997655258">
        <ele>0</ele>
        <time>1899-12-30T00:00:00Z</time>
      </trkpt>
      <trkpt lat="51.5704039169124" lon="7.31808392305961">
        <ele>0</ele>
        <time>1899-12-30T00:00:00Z</time>
      </trkpt>
      <trkpt lat="51.5706896325486" lon="7.31786760210178">
        <ele>0</ele>
        <time>1899-12-30T00:00:00Z</time>
      </trkpt>
    </trkseg>
  </trk>
</gpx>